FDX5501 SAEZ-SBKP

Flight info

Callsign FDX5501
Flight time 2h 3m
Altitude 35000
Route KUKEN1E KUKEN UM654 GAMOT UZ68 DOLDI UM400 VUGUP UZ132 EDRAT EDRAT1A
Aircraft MD11/H-SDE1E2E3FGHIJ2J3J4J5M1RWXY/LB1D1

Departure

Time 2026-04-29 03:54
Airport Ezeiza International Airport - Ministro Pistarini (SAEZ)

Arrival

Time 2026-04-29 05:57
Airport Viracopos International Airport (SBKP)
Time Latitude Longitude Altitude Speed Heading
2026-04-29 03:23 -34.81095 -58.53674 83 ft 0 kts 252°
2026-04-29 03:42 -34.81095 -58.53673 83 ft 1 kts 252°
2026-04-29 03:42 -34.81088 -58.53645 84 ft 4 kts 259°
2026-04-29 03:43 -34.81083 -58.53613 88 ft 4 kts 252°
2026-04-29 03:43 -34.81073 -58.53588 87 ft 2 kts 220°
2026-04-29 03:43 -34.81057 -58.53574 87 ft 4 kts 185°
2026-04-29 03:43 -34.81032 -58.53577 86 ft 4 kts 164°
2026-04-29 03:44 -34.81018 -58.53581 88 ft 1 kts 164°
2026-04-29 03:44 -34.81017 -58.53582 88 ft 0 kts 164°
2026-04-29 03:48 -34.81102 -58.53552 85 ft 19 kts 161°
2026-04-29 03:49 -34.81164 -58.53463 86 ft 11 kts 97°
2026-04-29 03:49 -34.81171 -58.53371 88 ft 10 kts 95°
2026-04-29 03:49 -34.81205 -58.53275 95 ft 25 kts 138°
2026-04-29 03:49 -34.81480 -58.53173 92 ft 51 kts 164°
2026-04-29 03:50 -34.81835 -58.53052 90 ft 49 kts 164°
2026-04-29 03:50 -34.82052 -58.52907 91 ft 23 kts 109°
2026-04-29 03:50 -34.82085 -58.52724 86 ft 22 kts 102°
2026-04-29 03:50 -34.82109 -58.52592 87 ft 9 kts 103°
2026-04-29 03:51 -34.82130 -58.52484 86 ft 25 kts 103°
2026-04-29 03:51 -34.82180 -58.52241 85 ft 33 kts 104°
2026-04-29 03:51 -34.82245 -58.51920 84 ft 37 kts 104°
2026-04-29 03:51 -34.82344 -58.51792 84 ft 8 kts 189°
2026-04-29 03:52 -34.82349 -58.51793 84 ft 0 kts 191°
2026-04-29 03:52 -34.82487 -58.51844 91 ft 24 kts 211°
2026-04-29 03:52 -34.82516 -58.51907 93 ft 0 kts 271°
2026-04-29 03:53 -34.82516 -58.51913 93 ft 5 kts 271°
2026-04-29 03:53 -34.82485 -58.52131 90 ft 61 kts 282°
2026-04-29 03:53 -34.82330 -58.52964 93 ft 138 kts 283°
2026-04-29 03:53 -34.82076 -58.54346 156 ft 188 kts 284°
2026-04-29 03:54 -34.81814 -58.55915 985 ft 183 kts 283°
2026-04-29 03:54 -34.81635 -58.57322 2287 ft 163 kts 282°
2026-04-29 03:54 -34.81498 -58.58704 3010 ft 173 kts 279°
2026-04-29 03:54 -34.81414 -58.60289 3288 ft 202 kts 268°
2026-04-29 03:55 -34.81785 -58.62033 3497 ft 223 kts 251°
2026-04-29 03:55 -34.82603 -58.63697 3784 ft 234 kts 239°
2026-04-29 03:55 -34.83651 -58.65247 4050 ft 241 kts 233°
2026-04-29 03:55 -34.84857 -58.66713 4172 ft 250 kts 228°
2026-04-29 03:56 -34.86236 -58.68052 4376 ft 258 kts 216°
2026-04-29 03:56 -34.87982 -58.68763 4678 ft 276 kts 192°
2026-04-29 03:56 -34.89893 -58.68549 4896 ft 282 kts 167°
2026-04-29 03:56 -34.91677 -58.67422 5251 ft 299 kts 144°
2026-04-29 03:57 -34.93103 -58.65529 5733 ft 310 kts 123°
2026-04-29 03:57 -34.93820 -58.63064 6330 ft 310 kts 91°
2026-04-29 03:57 -34.93432 -58.60502 6842 ft 309 kts 60°
2026-04-29 03:57 -34.92103 -58.58593 7600 ft 292 kts 32°
2026-04-29 03:58 -34.90352 -58.57359 8148 ft 288 kts 19°
2026-04-29 03:58 -34.88491 -58.56439 8746 ft 291 kts 15°
2026-04-29 03:58 -34.86576 -58.55565 9200 ft 302 kts 15°
2026-04-29 03:58 -34.84542 -58.54630 9505 ft 318 kts 16°
2026-04-29 03:59 -34.82495 -58.53656 10141 ft 322 kts 17°
2026-04-29 03:59 -34.80403 -58.52636 10795 ft 326 kts 17°
2026-04-29 03:59 -34.78291 -58.51590 11461 ft 330 kts 17°
2026-04-29 03:59 -34.76131 -58.50512 12115 ft 333 kts 17°
2026-04-29 04:00 -34.74002 -58.49445 12737 ft 337 kts 17°
2026-04-29 04:00 -34.71824 -58.48351 13357 ft 341 kts 18°
2026-04-29 04:00 -34.69622 -58.47242 13952 ft 344 kts 18°
2026-04-29 04:00 -34.67402 -58.46124 14528 ft 347 kts 18°
2026-04-29 04:01 -34.65158 -58.44994 15089 ft 350 kts 17°
2026-04-29 04:01 -34.62896 -58.43856 15595 ft 356 kts 17°
2026-04-29 04:01 -34.60550 -58.42682 15720 ft 373 kts 17°
2026-04-29 04:01 -34.58094 -58.41456 15844 ft 391 kts 18°
2026-04-29 04:02 -34.55529 -58.40172 16085 ft 404 kts 18°
2026-04-29 04:02 -34.52918 -58.38858 16672 ft 408 kts 18°
2026-04-29 04:02 -34.50282 -58.37530 17256 ft 412 kts 18°
2026-04-29 04:02 -34.47625 -58.36194 17839 ft 415 kts 17°
2026-04-29 04:03 -34.45862 -58.35308 18210 ft 418 kts 17°
2026-04-29 04:03 -34.43157 -58.33952 18736 ft 421 kts 17°
2026-04-29 04:03 -34.40437 -58.32590 19229 ft 424 kts 17°
2026-04-29 04:03 -34.37701 -58.31221 19723 ft 427 kts 18°
2026-04-29 04:04 -34.34945 -58.29844 20191 ft 430 kts 18°
2026-04-29 04:04 -34.32164 -58.28455 20673 ft 433 kts 18°
2026-04-29 04:04 -34.29365 -58.27058 21151 ft 436 kts 18°
2026-04-29 04:04 -34.26551 -58.25655 21591 ft 439 kts 18°
2026-04-29 04:05 -34.23715 -58.24242 22040 ft 442 kts 18°
2026-04-29 04:05 -34.20860 -58.22821 22485 ft 445 kts 18°
2026-04-29 04:05 -34.18002 -58.21338 22881 ft 451 kts 22°
2026-04-29 04:05 -34.15265 -58.19437 23322 ft 457 kts 30°
2026-04-29 04:06 -34.12639 -58.17243 23703 ft 462 kts 33°
2026-04-29 04:06 -34.10053 -58.14915 24083 ft 465 kts 34°
2026-04-29 04:06 -34.07473 -58.12549 24471 ft 467 kts 34°
2026-04-29 04:06 -34.04867 -58.10173 24857 ft 470 kts 34°
2026-04-29 04:07 -34.02276 -58.07841 25244 ft 472 kts 34°
2026-04-29 04:07 -33.99591 -58.05451 25620 ft 475 kts 34°
2026-04-29 04:07 -33.96923 -58.03093 26010 ft 477 kts 34°
2026-04-29 04:07 -33.94234 -58.00729 26375 ft 480 kts 34°
2026-04-29 04:08 -33.91565 -57.98386 26731 ft 482 kts 34°
2026-04-29 04:08 -33.88852 -57.96007 27092 ft 484 kts 34°
2026-04-29 04:08 -33.86107 -57.93602 27246 ft 492 kts 34°
2026-04-29 04:08 -33.83321 -57.91162 27387 ft 499 kts 34°
2026-04-29 04:09 -33.80490 -57.88684 27511 ft 507 kts 35°
2026-04-29 04:09 -33.77617 -57.86171 27650 ft 513 kts 35°
2026-04-29 04:09 -33.74713 -57.83632 27774 ft 519 kts 35°
2026-04-29 04:09 -33.71774 -57.81064 27912 ft 524 kts 35°
2026-04-29 04:10 -33.68832 -57.78495 28490 ft 517 kts 35°
2026-04-29 04:10 -33.65924 -57.75959 28873 ft 518 kts 35°
2026-04-29 04:10 -33.62999 -57.73418 29130 ft 520 kts 35°
2026-04-29 04:10 -33.60060 -57.70880 29390 ft 521 kts 36°
2026-04-29 04:11 -33.57149 -57.68369 29612 ft 522 kts 36°
2026-04-29 04:11 -33.54199 -57.65823 29804 ft 524 kts 36°
2026-04-29 04:11 -33.51244 -57.63273 30059 ft 523 kts 36°
2026-04-29 04:11 -33.48302 -57.60734 30290 ft 522 kts 36°
2026-04-29 04:12 -33.45351 -57.58187 30464 ft 522 kts 36°
2026-04-29 04:12 -33.42402 -57.55644 30647 ft 523 kts 36°
2026-04-29 04:12 -33.39449 -57.53100 30823 ft 523 kts 36°
2026-04-29 04:12 -33.36490 -57.50553 30994 ft 524 kts 36°
2026-04-29 04:13 -33.33530 -57.48007 31172 ft 524 kts 36°
2026-04-29 04:13 -33.30572 -57.45466 31373 ft 523 kts 37°
2026-04-29 04:13 -33.27614 -57.42927 31548 ft 523 kts 37°
2026-04-29 04:13 -33.24653 -57.40387 31718 ft 524 kts 37°
2026-04-29 04:14 -33.21691 -57.37849 31882 ft 524 kts 37°
2026-04-29 04:14 -33.18734 -57.35317 32128 ft 522 kts 37°
2026-04-29 04:14 -33.15779 -57.32789 32299 ft 522 kts 37°
2026-04-29 04:14 -33.12827 -57.30266 32460 ft 523 kts 37°
2026-04-29 04:15 -33.09867 -57.27738 32624 ft 523 kts 37°
2026-04-29 04:15 -33.06909 -57.25213 32785 ft 523 kts 37°
2026-04-29 04:15 -33.03950 -57.22690 32929 ft 524 kts 37°
2026-04-29 04:15 -33.01026 -57.20200 33141 ft 522 kts 37°
2026-04-29 04:16 -32.98071 -57.17685 33322 ft 521 kts 37°
2026-04-29 04:16 -32.95115 -57.15177 33480 ft 521 kts 37°
2026-04-29 04:16 -32.92153 -57.12673 33624 ft 522 kts 37°
2026-04-29 04:16 -32.89195 -57.10172 33798 ft 521 kts 37°
2026-04-29 04:17 -32.86244 -57.07676 34008 ft 520 kts 37°
2026-04-29 04:17 -32.83299 -57.05183 34163 ft 519 kts 37°
2026-04-29 04:17 -32.80361 -57.02696 34278 ft 519 kts 37°
2026-04-29 04:17 -32.77417 -57.00205 34414 ft 519 kts 37°
2026-04-29 04:18 -32.74476 -56.97718 34545 ft 518 kts 37°
2026-04-29 04:18 -32.71537 -56.95234 34694 ft 516 kts 37°
2026-04-29 04:18 -32.68624 -56.92776 34944 ft 513 kts 37°
2026-04-29 04:18 -32.65712 -56.90320 35031 ft 514 kts 37°
2026-04-29 04:19 -32.59874 -56.85401 35052 ft 514 kts 37°
2026-04-29 04:19 -32.54057 -56.80512 35058 ft 511 kts 37°
2026-04-29 04:20 -32.48238 -56.75642 35058 ft 512 kts 37°
2026-04-29 04:20 -32.42468 -56.70815 35054 ft 512 kts 37°
2026-04-29 04:21 -32.36661 -56.65957 35061 ft 510 kts 37°
2026-04-29 04:21 -32.30855 -56.61107 35064 ft 510 kts 37°
2026-04-29 04:22 -32.25048 -56.56264 35073 ft 510 kts 36°
2026-04-29 04:22 -32.19269 -56.51453 35069 ft 507 kts 36°
2026-04-29 04:23 -32.13492 -56.46655 35073 ft 508 kts 36°
2026-04-29 04:23 -32.07718 -56.41874 35071 ft 505 kts 36°
2026-04-29 04:24 -32.02004 -56.37142 35075 ft 505 kts 36°
2026-04-29 04:24 -31.96253 -56.32382 35074 ft 505 kts 36°
2026-04-29 04:25 -31.90500 -56.27626 35080 ft 506 kts 34°
2026-04-29 04:25 -31.84736 -56.22871 35080 ft 506 kts 34°
2026-04-29 04:26 -31.78968 -56.18119 35080 ft 506 kts 33°
2026-04-29 04:26 -31.73204 -56.13379 35083 ft 506 kts 33°
2026-04-29 04:27 -31.67440 -56.08646 35086 ft 506 kts 33°
2026-04-29 04:27 -31.61673 -56.03917 35086 ft 506 kts 33°
2026-04-29 04:28 -31.55937 -55.99223 35086 ft 506 kts 33°
2026-04-29 04:28 -31.50156 -55.94492 35087 ft 506 kts 33°
2026-04-29 04:29 -31.44385 -55.89762 35086 ft 506 kts 33°
2026-04-29 04:29 -31.38624 -55.85041 35089 ft 506 kts 33°
2026-04-29 04:30 -31.32897 -55.80355 35091 ft 506 kts 33°
2026-04-29 04:31 -31.24221 -55.73272 35088 ft 503 kts 32°
2026-04-29 04:31 -31.18528 -55.68632 35074 ft 501 kts 32°
2026-04-29 04:32 -31.12833 -55.63998 35067 ft 498 kts 32°
2026-04-29 04:32 -31.07136 -55.59370 35056 ft 499 kts 32°
2026-04-29 04:33 -31.01434 -55.54745 35047 ft 499 kts 32°
2026-04-29 04:33 -30.95739 -55.50131 35044 ft 499 kts 31°
2026-04-29 04:34 -30.90417 -55.44888 35092 ft 505 kts 43°
2026-04-29 04:34 -30.85647 -55.38844 35090 ft 509 kts 43°
2026-04-29 04:35 -30.80922 -55.32705 35096 ft 509 kts 43°
2026-04-29 04:35 -30.76179 -55.26694 35057 ft 509 kts 42°
2026-04-29 04:36 -30.71353 -55.20657 35080 ft 510 kts 41°
2026-04-29 04:36 -30.68931 -55.17639 35200 ft 509 kts 45°
2026-04-29 04:36 -30.66515 -55.14625 35065 ft 510 kts 41°
2026-04-29 04:37 -30.61681 -55.08604 35087 ft 508 kts 41°
2026-04-29 04:37 -30.56859 -55.02606 35089 ft 508 kts 41°
2026-04-29 04:38 -30.52030 -54.96614 35070 ft 507 kts 39°
2026-04-29 04:38 -30.47229 -54.90705 35083 ft 507 kts 39°
2026-04-29 04:39 -30.42394 -54.84763 35090 ft 506 kts 39°
2026-04-29 04:39 -30.37561 -54.78821 35081 ft 507 kts 39°
2026-04-29 04:40 -30.32730 -54.72884 35080 ft 507 kts 38°
2026-04-29 04:40 -30.27886 -54.66944 35093 ft 507 kts 38°
2026-04-29 04:41 -30.23043 -54.61013 35095 ft 507 kts 38°
2026-04-29 04:41 -30.18195 -54.55085 35098 ft 507 kts 38°
2026-04-29 04:42 -30.13351 -54.49169 35060 ft 507 kts 37°
2026-04-29 04:42 -30.08491 -54.43247 35093 ft 507 kts 37°
2026-04-29 04:43 -30.03635 -54.37337 35097 ft 507 kts 37°
2026-04-29 04:43 -29.98808 -54.31470 35097 ft 507 kts 37°
2026-04-29 04:44 -29.93943 -54.25578 35097 ft 506 kts 36°
2026-04-29 04:44 -29.89070 -54.19702 35095 ft 507 kts 36°
2026-04-29 04:45 -29.84204 -54.13828 35101 ft 507 kts 36°
2026-04-29 04:45 -29.79336 -54.07950 35100 ft 507 kts 36°
2026-04-29 04:46 -29.74473 -54.02082 35092 ft 507 kts 36°
2026-04-29 04:46 -29.69634 -53.96252 35080 ft 506 kts 35°
2026-04-29 04:47 -29.64761 -53.90394 35087 ft 506 kts 35°
2026-04-29 04:47 -29.59894 -53.84551 35087 ft 506 kts 35°
2026-04-29 04:48 -29.55019 -53.78708 35088 ft 506 kts 35°
2026-04-29 04:48 -29.50142 -53.72869 35092 ft 506 kts 34°
2026-04-29 04:49 -29.45255 -53.67031 35114 ft 508 kts 34°
2026-04-29 04:49 -29.40360 -53.61188 35115 ft 507 kts 34°
2026-04-29 04:50 -29.35455 -53.55356 35111 ft 507 kts 33°
2026-04-29 04:50 -29.30580 -53.49580 35116 ft 507 kts 34°
2026-04-29 04:51 -29.25677 -53.43764 35119 ft 507 kts 34°
2026-04-29 04:51 -29.20769 -53.37941 35117 ft 507 kts 34°
2026-04-29 04:52 -29.15866 -53.32131 35112 ft 507 kts 33°
2026-04-29 04:52 -29.10955 -53.26322 35111 ft 507 kts 34°
2026-04-29 04:53 -29.06874 -53.21500 35118 ft 508 kts 33°
2026-04-29 04:53 -29.01952 -53.15696 35076 ft 508 kts 33°
2026-04-29 04:54 -28.97029 -53.09896 35115 ft 509 kts 33°
2026-04-29 04:54 -28.92099 -53.04096 35117 ft 509 kts 33°
2026-04-29 04:55 -28.87169 -52.98304 35107 ft 509 kts 33°
2026-04-29 04:55 -28.82218 -52.92501 35115 ft 510 kts 33°
2026-04-29 04:56 -28.77296 -52.86750 35116 ft 510 kts 33°
2026-04-29 04:56 -28.72336 -52.80971 35113 ft 510 kts 33°
2026-04-29 04:57 -28.67380 -52.75193 35104 ft 510 kts 33°
2026-04-29 04:57 -28.60409 -52.67069 35114 ft 512 kts 33°
2026-04-29 04:58 -28.50466 -52.55504 35120 ft 512 kts 33°
2026-04-29 04:58 -28.40483 -52.43932 35112 ft 513 kts 33°
2026-04-29 04:59 -28.30476 -52.32385 35116 ft 513 kts 33°
2026-04-29 04:59 -28.20432 -52.20823 35111 ft 517 kts 34°
2026-04-29 05:00 -28.10353 -52.09231 35111 ft 516 kts 33°
2026-04-29 05:00 -28.00260 -51.97663 35115 ft 517 kts 34°
2026-04-29 05:01 -27.92832 -51.89168 35110 ft 517 kts 34°
2026-04-29 05:01 -27.87808 -51.83433 35113 ft 517 kts 34°
2026-04-29 05:02 -27.82743 -51.77660 35101 ft 518 kts 34°
2026-04-29 05:02 -27.77659 -51.71876 35105 ft 518 kts 34°
2026-04-29 05:03 -27.72584 -51.66105 35117 ft 518 kts 33°
2026-04-29 05:03 -27.67495 -51.60344 35101 ft 517 kts 33°
2026-04-29 05:04 -27.62407 -51.54600 35098 ft 519 kts 34°
2026-04-29 05:04 -27.57302 -51.48831 35103 ft 519 kts 34°
2026-04-29 05:05 -27.52234 -51.43102 35089 ft 520 kts 34°
2026-04-29 05:05 -27.47082 -51.37287 35099 ft 521 kts 34°
2026-04-29 05:06 -27.41995 -51.31552 35091 ft 520 kts 34°
2026-04-29 05:06 -27.36873 -51.25786 35111 ft 521 kts 34°
2026-04-29 05:07 -27.31753 -51.20041 35092 ft 520 kts 34°
2026-04-29 05:07 -27.26623 -51.14306 35109 ft 520 kts 34°
2026-04-29 05:08 -27.21491 -51.08569 35092 ft 519 kts 34°
2026-04-29 05:08 -27.16374 -51.02851 35109 ft 518 kts 34°
2026-04-29 05:09 -27.11292 -50.97179 35098 ft 519 kts 34°
2026-04-29 05:09 -27.06174 -50.91476 35108 ft 518 kts 34°
2026-04-29 05:10 -27.01057 -50.85781 35100 ft 518 kts 34°
2026-04-29 05:10 -26.95939 -50.80094 35111 ft 519 kts 34°
2026-04-29 05:11 -26.90817 -50.74409 35114 ft 518 kts 34°
2026-04-29 05:11 -26.85692 -50.68729 35121 ft 518 kts 33°
2026-04-29 05:12 -26.80569 -50.63059 35109 ft 517 kts 34°
2026-04-29 05:12 -26.75453 -50.57397 35131 ft 517 kts 34°
2026-04-29 05:13 -26.70355 -50.51725 35127 ft 516 kts 34°
2026-04-29 05:13 -26.65304 -50.46094 35133 ft 516 kts 34°
2026-04-29 05:14 -26.60216 -50.40427 35127 ft 515 kts 34°
2026-04-29 05:14 -26.55357 -50.34474 35126 ft 529 kts 45°
2026-04-29 05:14 -26.53409 -50.30938 35128 ft 541 kts 54°
2026-04-29 05:15 -26.51832 -50.27081 35130 ft 548 kts 60°
2026-04-29 05:15 -26.49062 -50.19126 35111 ft 550 kts 61°
2026-04-29 05:16 -26.46153 -50.11252 35127 ft 546 kts 58°
2026-04-29 05:16 -26.43074 -50.03512 35126 ft 545 kts 57°
2026-04-29 05:17 -26.39945 -49.95812 35115 ft 545 kts 57°
2026-04-29 05:17 -26.36798 -49.88138 35127 ft 542 kts 55°
2026-04-29 05:17 -26.34969 -49.84511 35128 ft 531 kts 47°
2026-04-29 05:18 -26.32737 -49.81304 35130 ft 517 kts 37°
2026-04-29 05:18 -26.30152 -49.78609 35125 ft 501 kts 27°
2026-04-29 05:18 -26.27300 -49.76495 35098 ft 485 kts 17°
2026-04-29 05:19 -26.21266 -49.73484 35122 ft 477 kts 12°
2026-04-29 05:19 -26.15169 -49.70463 35128 ft 482 kts 15°
2026-04-29 05:20 -26.09161 -49.67111 35132 ft 484 kts 17°
2026-04-29 05:20 -26.03182 -49.63625 35128 ft 485 kts 17°
2026-04-29 05:21 -25.97210 -49.60133 35114 ft 485 kts 17°
2026-04-29 05:21 -25.91217 -49.56648 35128 ft 486 kts 17°
2026-04-29 05:22 -25.85219 -49.53169 35128 ft 486 kts 17°
2026-04-29 05:22 -25.79224 -49.49697 35126 ft 486 kts 17°
2026-04-29 05:23 -25.73331 -49.46287 35126 ft 486 kts 17°
2026-04-29 05:23 -25.67323 -49.42816 35122 ft 486 kts 17°
2026-04-29 05:24 -25.61324 -49.39354 35129 ft 486 kts 17°
2026-04-29 05:24 -25.55319 -49.35894 35129 ft 486 kts 17°
2026-04-29 05:25 -25.49307 -49.32458 35132 ft 486 kts 17°
2026-04-29 05:25 -25.43296 -49.29035 35134 ft 486 kts 17°
2026-04-29 05:26 -25.37283 -49.25610 35128 ft 486 kts 18°
2026-04-29 05:26 -25.31265 -49.22178 35133 ft 486 kts 18°
2026-04-29 05:27 -25.25253 -49.18750 35135 ft 486 kts 18°
2026-04-29 05:27 -25.16284 -49.13645 35132 ft 486 kts 18°
2026-04-29 05:28 -25.10278 -49.10224 35112 ft 486 kts 18°
2026-04-29 05:28 -25.04258 -49.06796 35111 ft 486 kts 19°
2026-04-29 05:29 -24.98259 -49.03378 35120 ft 485 kts 19°
2026-04-29 05:29 -24.92260 -48.99967 35126 ft 485 kts 18°
2026-04-29 05:30 -24.86267 -48.96562 35125 ft 483 kts 18°
2026-04-29 05:30 -24.80329 -48.93193 35111 ft 483 kts 19°
2026-04-29 05:31 -24.74321 -48.89798 35114 ft 487 kts 19°
2026-04-29 05:31 -24.68299 -48.86389 35107 ft 486 kts 19°
2026-04-29 05:32 -24.62297 -48.82994 35126 ft 485 kts 19°
2026-04-29 05:32 -24.56282 -48.79597 35125 ft 486 kts 19°
2026-04-29 05:33 -24.50270 -48.76201 35114 ft 486 kts 19°
2026-04-29 05:33 -24.44378 -48.72437 35124 ft 492 kts 24°
2026-04-29 05:34 -24.38628 -48.68415 35114 ft 493 kts 24°
2026-04-29 05:34 -24.32850 -48.64359 35118 ft 493 kts 24°
2026-04-29 05:35 -24.27048 -48.60332 35025 ft 495 kts 24°
2026-04-29 05:35 -24.24134 -48.58321 34801 ft 496 kts 24°
2026-04-29 05:35 -24.21213 -48.56305 34453 ft 496 kts 24°
2026-04-29 05:36 -24.18292 -48.54290 34020 ft 495 kts 24°
2026-04-29 05:36 -24.15392 -48.52289 33450 ft 492 kts 25°
2026-04-29 05:36 -24.12496 -48.50292 32926 ft 492 kts 25°
2026-04-29 05:36 -24.09599 -48.48298 32398 ft 492 kts 25°
2026-04-29 05:37 -24.06698 -48.46302 31889 ft 493 kts 25°
2026-04-29 05:37 -24.03799 -48.44309 31378 ft 493 kts 25°
2026-04-29 05:37 -24.00883 -48.42305 30871 ft 494 kts 25°
2026-04-29 05:37 -23.97974 -48.40306 30363 ft 494 kts 25°
2026-04-29 05:38 -23.95063 -48.38306 29761 ft 495 kts 26°
2026-04-29 05:38 -23.92155 -48.36308 29163 ft 491 kts 26°
2026-04-29 05:38 -23.89277 -48.34329 28589 ft 486 kts 26°
2026-04-29 05:38 -23.86429 -48.32372 28058 ft 481 kts 26°
2026-04-29 05:39 -23.83622 -48.30409 27515 ft 478 kts 27°
2026-04-29 05:39 -23.80869 -48.28393 26910 ft 474 kts 28°
2026-04-29 05:39 -23.78200 -48.26384 26313 ft 470 kts 29°
2026-04-29 05:39 -23.75536 -48.24356 25721 ft 465 kts 29°
2026-04-29 05:40 -23.72895 -48.22344 25108 ft 460 kts 29°
2026-04-29 05:40 -23.70277 -48.20351 24525 ft 455 kts 29°
2026-04-29 05:40 -23.67688 -48.18388 23947 ft 451 kts 29°
2026-04-29 05:40 -23.65125 -48.16449 23312 ft 446 kts 29°
2026-04-29 05:41 -23.62584 -48.14529 22688 ft 442 kts 29°
2026-04-29 05:41 -23.60069 -48.12631 22096 ft 437 kts 29°
2026-04-29 05:41 -23.57573 -48.10749 21503 ft 434 kts 30°
2026-04-29 05:41 -23.55098 -48.08884 20967 ft 430 kts 30°
2026-04-29 05:42 -23.52648 -48.07038 20417 ft 427 kts 30°
2026-04-29 05:42 -23.50215 -48.05206 19868 ft 423 kts 30°
2026-04-29 05:42 -23.47800 -48.03388 19254 ft 421 kts 30°
2026-04-29 05:42 -23.45406 -48.01586 18545 ft 416 kts 30°
2026-04-29 05:43 -23.43839 -48.00407 18036 ft 411 kts 30°
2026-04-29 05:43 -23.41511 -47.98655 17369 ft 400 kts 30°
2026-04-29 05:43 -23.39259 -47.96958 16988 ft 393 kts 30°
2026-04-29 05:43 -23.37019 -47.95277 16616 ft 389 kts 30°
2026-04-29 05:44 -23.34797 -47.93609 16265 ft 384 kts 30°
2026-04-29 05:44 -23.32626 -47.91979 16124 ft 378 kts 30°
2026-04-29 05:44 -23.30455 -47.90352 16098 ft 379 kts 30°
2026-04-29 05:44 -23.28285 -47.88726 16020 ft 380 kts 30°
2026-04-29 05:45 -23.26096 -47.87084 15315 ft 381 kts 31°
2026-04-29 05:45 -23.23938 -47.85460 14651 ft 374 kts 31°
2026-04-29 05:45 -23.21845 -47.83818 13987 ft 368 kts 37°
2026-04-29 05:45 -23.20144 -47.81762 13294 ft 366 kts 52°
2026-04-29 05:46 -23.18976 -47.79695 12678 ft 363 kts 58°
2026-04-29 05:46 -23.17802 -47.77274 12022 ft 360 kts 60°
2026-04-29 05:46 -23.16681 -47.74858 11432 ft 355 kts 60°
2026-04-29 05:46 -23.15588 -47.72514 11147 ft 349 kts 60°
2026-04-29 05:47 -23.14503 -47.70219 10924 ft 333 kts 60°
2026-04-29 05:47 -23.13462 -47.68043 10727 ft 316 kts 59°
2026-04-29 05:47 -23.12471 -47.65990 10598 ft 299 kts 59°
2026-04-29 05:47 -23.11509 -47.64014 10474 ft 297 kts 59°
2026-04-29 05:48 -23.10539 -47.62033 10317 ft 297 kts 59°
2026-04-29 05:48 -23.09563 -47.60045 9967 ft 299 kts 58°
2026-04-29 05:48 -23.08587 -47.58059 9488 ft 297 kts 59°
2026-04-29 05:48 -23.07632 -47.56109 9055 ft 287 kts 59°
2026-04-29 05:49 -23.06689 -47.54190 8625 ft 285 kts 59°
2026-04-29 05:49 -23.05784 -47.52341 8233 ft 271 kts 59°
2026-04-29 05:49 -23.04898 -47.50538 7993 ft 271 kts 59°
2026-04-29 05:49 -23.04016 -47.48741 7917 ft 270 kts 59°
2026-04-29 05:50 -23.03130 -47.46935 7717 ft 273 kts 59°
2026-04-29 05:50 -23.02249 -47.45133 7338 ft 268 kts 59°
2026-04-29 05:50 -23.01375 -47.43347 6994 ft 267 kts 59°
2026-04-29 05:50 -23.00511 -47.41581 6664 ft 264 kts 59°
2026-04-29 05:51 -22.99660 -47.39843 6505 ft 263 kts 59°
2026-04-29 05:51 -22.98824 -47.38132 6461 ft 243 kts 59°
2026-04-29 05:51 -22.98051 -47.36583 6459 ft 230 kts 54°
2026-04-29 05:51 -22.97044 -47.35360 6392 ft 208 kts 38°
2026-04-29 05:52 -22.95936 -47.34361 5932 ft 203 kts 36°
2026-04-29 05:52 -22.94842 -47.33419 5543 ft 200 kts 36°
2026-04-29 05:52 -22.93749 -47.32485 5175 ft 200 kts 37°
2026-04-29 05:52 -22.92671 -47.31532 4725 ft 198 kts 43°
2026-04-29 05:53 -22.91799 -47.30393 4330 ft 197 kts 60°
2026-04-29 05:53 -22.91320 -47.29047 3967 ft 185 kts 80°
2026-04-29 05:53 -22.91299 -47.27727 3737 ft 169 kts 99°
2026-04-29 05:53 -22.91656 -47.26518 3777 ft 168 kts 117°
2026-04-29 05:54 -22.92271 -47.25443 3783 ft 168 kts 123°
2026-04-29 05:54 -22.92926 -47.24391 3809 ft 169 kts 124°
2026-04-29 05:54 -22.93635 -47.23372 3789 ft 169 kts 127°
2026-04-29 05:54 -22.94357 -47.22367 3784 ft 169 kts 127°
2026-04-29 05:55 -22.95077 -47.21361 3730 ft 170 kts 127°
2026-04-29 05:55 -22.95787 -47.20368 3477 ft 165 kts 127°
2026-04-29 05:55 -22.96479 -47.19386 3315 ft 164 kts 124°
2026-04-29 05:55 -22.97146 -47.18405 3153 ft 158 kts 127°
2026-04-29 05:56 -22.97818 -47.17473 2849 ft 156 kts 128°
2026-04-29 05:56 -22.98490 -47.16581 2629 ft 151 kts 130°
2026-04-29 05:56 -22.99152 -47.15677 2434 ft 153 kts 127°
2026-04-29 05:56 -22.99780 -47.14780 2198 ft 148 kts 127°
2026-04-29 05:57 -23.00327 -47.14017 2160 ft 101 kts 126°
2026-04-29 05:57 -23.00664 -47.13560 2154 ft 57 kts 126°
2026-04-29 05:57 -23.00839 -47.13314 2156 ft 27 kts 119°
2026-04-29 05:57 -23.00901 -47.13216 2158 ft 8 kts 128°
2026-04-29 05:58 -23.00913 -47.13200 2159 ft 7 kts 128°
2026-04-29 05:58 -23.01040 -47.13024 2156 ft 32 kts 129°
2026-04-29 05:58 -23.01164 -47.12897 2159 ft 18 kts 143°
2026-04-29 05:58 -23.01237 -47.12849 2156 ft 8 kts 158°
2026-04-29 05:59 -23.01291 -47.12827 2155 ft 11 kts 159°
2026-04-29 05:59 -23.01387 -47.12820 2159 ft 15 kts 208°
2026-04-29 05:59 -23.01395 -47.12873 2160 ft 21 kts 294°
2026-04-29 05:59 -23.01190 -47.13136 2156 ft 51 kts 307°
2026-04-29 06:00 -23.01006 -47.13395 2162 ft 37 kts 307°
2026-04-29 06:00 -23.00880 -47.13574 2157 ft 23 kts 308°
2026-04-29 06:00 -23.00803 -47.13677 2157 ft 12 kts 308°
2026-04-29 06:00 -23.00773 -47.13719 2158 ft 13 kts 307°
2026-04-29 06:01 -23.00698 -47.13945 2160 ft 35 kts 289°
2026-04-29 06:01 -23.00605 -47.14118 2157 ft 18 kts 308°
2026-04-29 06:01 -23.00544 -47.14198 2160 ft 10 kts 309°
2026-04-29 06:01 -23.00522 -47.14228 2160 ft 0 kts 308°
2026-04-29 06:02 -23.00438 -47.14347 2157 ft 38 kts 309°
2026-04-29 06:02 -23.00319 -47.14513 2159 ft 16 kts 297°
2026-04-29 06:02 -23.00325 -47.14555 2156 ft 12 kts 229°
2026-04-29 06:02 -23.00361 -47.14580 2156 ft 0 kts 216°
2026-04-29 06:03 -23.00381 -47.14598 2157 ft 6 kts 217°
2026-04-29 06:03 -23.00384 -47.14600 2157 ft 0 kts 218°